Location: Proctor
(47.8934°N, 114.3048°W)
Time: 22:19:38
(UTC+00:00)

Tiros 1 despin weight - Pass Details

Date: 02 July 2024
Orbit: 576 x 620 km, 48.2° (Epoch: 19 July)

Event Time Altitude Azimuth Distance (km) Brightness Sun altitude
Rises 22:43:00 0° 277° (W) 2,895 ? 46.3°
Reaches altitude 10° 22:47:02 10° 242° (WSW) 1,983 ? 45.7°
Maximum altitude 22:48:18 11° 226° (SW) 1,910 ? 45.5°
Drops below altitude 10° 22:49:35 10° 210° (SSW) 1,977 ? 45.2°
Sets 22:53:35 0° 175° (S) 2,869 ? 44.6°
